Time,TemperatureF,DewpointF,PressureIn,WindDirection,WindDirectionDegrees,WindSpeedMPH,WindSpeedGustMPH,Humidity,HourlyPrecipIn,Conditions,Clouds,dailyrainin,SoftwareType,DateUTC
2013-08-16 00:01:00,72.8,63.0,30.00,NE,42,0.0,0.0,71,0.00,,,0.00,weatherlink.com 1.10,2013-08-16 05:01:00,
2013-08-16 00:31:00,72.2,63.0,30.00,North,11,0.0,0.0,73,0.00,,,0.00,weatherlink.com 1.10,2013-08-16 05:31:00,
2013-08-16 00:46:00,71.5,62.0,30.01,NNE,12,0.0,1.0,73,0.00,,,0.00,weatherlink.com 1.10,2013-08-16 05:46:00,
2013-08-16 01:01:00,71.3,63.0,30.00,NNE,12,0.0,0.0,76,0.00,,,0.00,weatherlink.com 1.10,2013-08-16 06:01:00,
2013-08-16 01:16:00,70.5,63.0,30.00,NNE,12,0.0,0.0,77,0.00,,,0.00,weatherlink.com 1.10,2013-08-16 06:16:00,
2013-08-16 01:31:00,70.1,63.0,29.99,NNE,12,0.0,0.0,78,0.00,,,0.00,weatherlink.com 1.10,2013-08-16 06:31:00,
2013-08-16 01:46:00,69.8,63.0,29.99,North,9,0.0,2.0,78,0.00,,,0.00,weatherlink.com 1.10,2013-08-16 06:46:00,
2013-08-16 02:01:00,69.9,63.0,29.97,North,9,0.0,2.0,79,0.00,,,0.00,weatherlink.com 1.10,2013-08-16 07:01:00,
2013-08-16 02:16:00,69.4,63.0,29.98,North,9,0.0,0.0,79,0.00,,,0.00,weatherlink.com 1.10,2013-08-16 07:16:00,
2013-08-16 02:32:00,69.0,63.0,29.98,North,9,0.0,1.0,82,0.00,,,0.00,weatherlink.com 1.10,2013-08-16 07:32:00,
2013-08-16 02:47:00,68.3,63.0,29.97,North,9,0.0,0.0,82,0.00,,,0.00,weatherlink.com 1.10,2013-08-16 07:47:00,
2013-08-16 03:02:00,67.9,63.0,29.97,North,9,0.0,0.0,83,0.00,,,0.00,weatherlink.com 1.10,2013-08-16 08:02:00,
2013-08-16 03:17:00,67.4,62.0,29.97,North,9,0.0,0.0,84,0.00,,,0.00,weatherlink.com 1.10,2013-08-16 08:17:00,
2013-08-16 03:32:00,67.2,62.0,29.97,North,9,0.0,0.0,84,0.00,,,0.00,weatherlink.com 1.10,2013-08-16 08:32:00,
2013-08-16 03:47:00,66.8,62.0,29.97,North,9,0.0,0.0,84,0.00,,,0.00,weatherlink.com 1.10,2013-08-16 08:47:00,
2013-08-16 04:02:00,66.3,62.0,29.97,North,9,0.0,0.0,85,0.00,,,0.00,weatherlink.com 1.10,2013-08-16 09:02:00,
2013-08-16 04:17:00,66.1,62.0,29.97,North,8,0.0,0.0,85,0.00,,,0.00,weatherlink.com 1.10,2013-08-16 09:17:00,
2013-08-16 04:32:00,65.8,61.0,29.98,North,8,0.0,0.0,85,0.00,,,0.00,weatherlink.com 1.10,2013-08-16 09:32:00,
2013-08-16 04:47:00,65.7,61.0,29.98,North,8,0.0,0.0,85,0.00,,,0.00,weatherlink.com 1.10,2013-08-16 09:47:00,
2013-08-16 05:02:00,65.7,61.0,29.99,North,8,0.0,0.0,85,0.00,,,0.00,weatherlink.com 1.10,2013-08-16 10:02:00,
2013-08-16 05:17:00,65.8,61.0,29.99,North,9,0.0,1.0,85,0.00,,,0.00,weatherlink.com 1.10,2013-08-16 10:17:00,
2013-08-16 05:32:00,65.5,61.0,29.99,North,9,0.0,0.0,85,0.00,,,0.00,weatherlink.com 1.10,2013-08-16 10:32:00,
2013-08-16 05:47:00,65.3,61.0,29.99,North,9,0.0,0.0,85,0.00,,,0.00,weatherlink.com 1.10,2013-08-16 10:47:00,
2013-08-16 06:02:00,65.1,61.0,30.00,North,9,0.0,0.0,85,0.00,,,0.00,weatherlink.com 1.10,2013-08-16 11:02:00,
2013-08-16 06:17:00,64.9,60.0,30.00,North,9,0.0,2.0,85,0.00,,,0.00,weatherlink.com 1.10,2013-08-16 11:17:00,
2013-08-16 06:32:00,64.9,60.0,30.00,SE,124,0.0,2.0,85,0.00,,,0.00,weatherlink.com 1.10,2013-08-16 11:32:00,
2013-08-16 06:47:00,64.8,60.0,30.00,South,185,0.0,0.0,85,0.00,,,0.00,weatherlink.com 1.10,2013-08-16 11:47:00,
2013-08-16 07:02:00,64.9,60.0,30.01,NW,320,0.0,1.0,85,0.00,,,0.00,weatherlink.com 1.10,2013-08-16 12:02:00,
2013-08-16 07:17:00,65.1,61.0,30.01,NW,320,0.0,1.0,85,0.00,,,0.00,weatherlink.com 1.10,2013-08-16 12:17:00,
2013-08-16 07:32:00,65.3,61.0,30.01,NW,321,0.0,0.0,85,0.00,,,0.00,weatherlink.com 1.10,2013-08-16 12:32:00,
2013-08-16 07:47:00,65.7,61.0,30.01,NW,321,0.0,0.0,85,0.00,,,0.00,weatherlink.com 1.10,2013-08-16 12:47:00,
2013-08-16 08:02:00,66.5,62.0,30.01,NW,321,0.0,0.0,85,0.00,,,0.00,weatherlink.com 1.10,2013-08-16 13:02:00,
2013-08-16 08:17:00,67.4,63.0,30.01,NW,321,0.0,0.0,85,0.00,,,0.00,weatherlink.com 1.10,2013-08-16 13:17:00,
2013-08-16 08:32:00,69.9,65.0,30.02,NW,320,0.0,3.0,83,0.00,,,0.00,weatherlink.com 1.10,2013-08-16 13:32:00,
2013-08-16 08:47:00,71.8,65.0,30.02,SW,230,0.0,5.0,80,0.00,,,0.00,weatherlink.com 1.10,2013-08-16 13:47:00,
2013-08-16 09:02:00,73.5,65.0,30.01,SW,226,0.0,4.0,75,0.00,,,0.00,weatherlink.com 1.10,2013-08-16 14:02:00,
2013-08-16 09:17:00,74.6,65.0,30.01,WSW,248,3.0,4.0,73,0.00,,,0.00,weatherlink.com 1.10,2013-08-16 14:17:00,
2013-08-16 09:32:00,75.8,66.0,30.00,WSW,248,0.0,1.0,71,0.00,,,0.00,weatherlink.com 1.10,2013-08-16 14:32:00,
2013-08-16 09:47:00,78.1,67.0,30.00,WSW,240,0.0,1.0,68,0.00,,,0.00,weatherlink.com 1.10,2013-08-16 14:47:00,
2013-08-16 10:02:00,79.9,66.0,30.00,SSW,201,0.0,4.0,62,0.00,,,0.00,weatherlink.com 1.10,2013-08-16 15:02:00,
2013-08-16 10:17:00,81.4,67.0,30.00,SSW,200,0.0,1.0,61,0.00,,,0.00,weatherlink.com 1.10,2013-08-16 15:17:00,
2013-08-16 10:32:00,82.5,66.0,30.00,East,85,0.0,3.0,58,0.00,,,0.00,weatherlink.com 1.10,2013-08-16 15:32:00,
2013-08-16 10:47:00,83.1,65.0,30.00,SW,235,0.0,4.0,55,0.00,,,0.00,weatherlink.com 1.10,2013-08-16 15:47:00,
2013-08-16 11:02:00,84.0,66.0,30.00,WSW,239,0.0,3.0,55,0.00,,,0.00,weatherlink.com 1.10,2013-08-16 16:02:00,
2013-08-16 11:17:00,85.6,66.0,30.01,SSW,200,0.0,3.0,52,0.00,,,0.00,weatherlink.com 1.10,2013-08-16 16:17:00,
2013-08-16 11:33:00,86.6,69.0,30.00,SSE,168,0.0,4.0,55,0.00,,,0.00,weatherlink.com 1.10,2013-08-16 16:33:00,
2013-08-16 11:48:00,87.6,67.0,30.00,NNW,345,0.0,5.0,50,0.00,,,0.00,weatherlink.com 1.10,2013-08-16 16:48:00,
2013-08-16 12:03:00,87.6,68.0,29.99,West,274,0.0,5.0,52,0.00,,,0.00,weatherlink.com 1.10,2013-08-16 17:03:00,
2013-08-16 12:18:00,87.9,68.0,29.99,West,270,0.0,6.0,52,0.00,,,0.00,weatherlink.com 1.10,2013-08-16 17:18:00,
2013-08-16 12:33:00,89.8,69.0,29.99,South,172,0.0,2.0,51,0.00,,,0.00,weatherlink.com 1.10,2013-08-16 17:33:00,
2013-08-16 12:48:00,90.3,67.0,29.98,SSE,165,1.0,6.0,47,0.00,,,0.00,weatherlink.com 1.10,2013-08-16 17:48:00,
2013-08-16 13:03:00,89.3,66.0,29.98,WSW,258,0.0,7.0,47,0.00,,,0.00,weatherlink.com 1.10,2013-08-16 18:03:00,
2013-08-16 13:18:00,88.6,66.0,29.98,WNW,299,0.0,6.0,47,0.00,,,0.00,weatherlink.com 1.10,2013-08-16 18:18:00,
2013-08-16 13:33:00,89.4,66.0,29.97,WNW,290,5.0,5.0,46,0.00,,,0.00,weatherlink.com 1.10,2013-08-16 18:33:00,
2013-08-16 13:48:00,91.9,67.0,29.96,SSE,148,0.0,4.0,44,0.00,,,0.00,weatherlink.com 1.10,2013-08-16 18:48:00,
2013-08-16 14:03:00,91.0,65.0,29.96,WSW,255,0.0,1.0,42,0.00,,,0.00,weatherlink.com 1.10,2013-08-16 19:03:00,
2013-08-16 14:18:00,90.7,67.0,29.95,West,277,0.0,7.0,45,0.00,,,0.00,weatherlink.com 1.10,2013-08-16 19:18:00,
2013-08-16 14:33:00,90.2,65.0,29.95,WNW,291,0.0,8.0,43,0.00,,,0.00,weatherlink.com 1.10,2013-08-16 19:33:00,
2013-08-16 14:48:00,92.6,65.0,29.94,ENE,74,0.0,5.0,40,0.00,,,0.00,weatherlink.com 1.10,2013-08-16 19:48:00,
2013-08-16 15:03:00,93.2,66.0,29.93,West,280,3.0,7.0,40,0.00,,,0.00,weatherlink.com 1.10,2013-08-16 20:03:00,
2013-08-16 15:18:00,93.2,64.0,29.93,North,1,0.0,10.0,38,0.00,,,0.00,weatherlink.com 1.10,2013-08-16 20:18:00,
2013-08-16 15:33:00,90.7,64.0,29.93,WNW,296,0.0,5.0,41,0.00,,,0.00,weatherlink.com 1.10,2013-08-16 20:33:00,
2013-08-16 15:48:00,90.8,65.0,29.93,WSW,247,0.0,4.0,42,0.00,,,0.00,weatherlink.com 1.10,2013-08-16 20:48:00,
2013-08-16 16:03:00,90.7,65.0,29.93,NNW,334,4.0,6.0,42,0.00,,,0.00,weatherlink.com 1.10,2013-08-16 21:03:00,
2013-08-16 16:18:00,90.4,64.0,29.92,NW,304,0.0,4.0,42,0.00,,,0.00,weatherlink.com 1.10,2013-08-16 21:18:00,
2013-08-16 16:33:00,90.8,64.0,29.92,WNW,286,0.0,4.0,41,0.00,,,0.00,weatherlink.com 1.10,2013-08-16 21:33:00,
2013-08-16 16:48:00,91.2,64.0,29.92,NW,319,0.0,5.0,41,0.00,,,0.00,weatherlink.com 1.10,2013-08-16 21:48:00,
2013-08-16 17:03:00,91.0,64.0,29.91,SW,222,1.0,4.0,41,0.00,,,0.00,weatherlink.com 1.10,2013-08-16 22:03:00,
2013-08-16 17:18:00,90.1,63.0,29.93,North,8,0.0,4.0,41,0.00,,,0.00,weatherlink.com 1.10,2013-08-16 22:18:00,
2013-08-16 17:33:00,89.1,63.0,29.93,WNW,282,4.0,7.0,42,0.00,,,0.00,weatherlink.com 1.10,2013-08-16 22:33:00,
2013-08-16 17:48:00,88.7,63.0,29.93,WNW,282,0.0,4.0,42,0.00,,,0.00,weatherlink.com 1.10,2013-08-16 22:48:00,
2013-08-16 18:03:00,88.7,65.0,29.93,WNW,282,0.0,2.0,45,0.00,,,0.00,weatherlink.com 1.10,2013-08-16 23:03:00,
2013-08-16 18:18:00,89.2,64.0,29.92,WNW,299,0.0,5.0,43,0.00,,,0.00,weatherlink.com 1.10,2013-08-16 23:18:00,
2013-08-16 18:33:00,88.8,64.0,29.92,WNW,290,3.0,5.0,43,0.00,,,0.00,weatherlink.com 1.10,2013-08-16 23:33:00,
2013-08-16 18:48:00,87.9,63.0,29.93,NW,304,0.0,4.0,44,0.00,,,0.00,weatherlink.com 1.10,2013-08-16 23:48:00,
2013-08-16 19:03:00,87.0,63.0,29.93,NW,316,0.0,3.0,45,0.00,,,0.00,weatherlink.com 1.10,2013-08-17 00:03:00,
2013-08-16 19:18:00,86.6,65.0,29.93,NW,310,0.0,3.0,48,0.00,,,0.00,weatherlink.com 1.10,2013-08-17 00:18:00,
2013-08-16 19:33:00,85.7,65.0,29.93,WNW,303,0.0,1.0,50,0.00,,,0.00,weatherlink.com 1.10,2013-08-17 00:33:00,
2013-08-16 19:48:00,84.8,64.0,29.94,SW,217,0.0,6.0,50,0.00,,,0.00,weatherlink.com 1.10,2013-08-17 00:48:00,
2013-08-16 20:03:00,83.6,64.0,29.94,West,268,0.0,6.0,52,0.00,,,0.00,weatherlink.com 1.10,2013-08-17 01:03:00,
2013-08-16 20:18:00,82.9,63.0,29.94,West,276,0.0,4.0,52,0.00,,,0.00,weatherlink.com 1.10,2013-08-17 01:18:00,
2013-08-16 20:33:00,82.0,64.0,29.96,West,267,0.0,4.0,54,0.00,,,0.00,weatherlink.com 1.10,2013-08-17 01:33:00,
2013-08-16 20:48:00,81.3,64.0,29.97,WSW,243,0.0,6.0,55,0.00,,,0.00,weatherlink.com 1.10,2013-08-17 01:48:00,
2013-08-16 21:03:00,80.6,63.0,29.98,WSW,252,0.0,6.0,56,0.00,,,0.00,weatherlink.com 1.10,2013-08-17 02:03:00,
2013-08-16 21:18:00,80.0,63.0,29.98,WNW,284,0.0,1.0,57,0.00,,,0.00,weatherlink.com 1.10,2013-08-17 02:18:00,
2013-08-16 21:33:00,79.5,63.0,29.99,SW,222,0.0,3.0,57,0.00,,,0.00,weatherlink.com 1.10,2013-08-17 02:33:00,
2013-08-16 21:48:00,79.0,62.0,30.00,WSW,243,0.0,4.0,57,0.00,,,0.00,weatherlink.com 1.10,2013-08-17 02:48:00,
2013-08-16 22:03:00,78.8,62.0,30.00,West,278,0.0,4.0,57,0.00,,,0.00,weatherlink.com 1.10,2013-08-17 03:03:00,
2013-08-16 22:18:00,78.0,63.0,30.00,West,280,0.0,1.0,61,0.00,,,0.00,weatherlink.com 1.10,2013-08-17 03:18:00,
2013-08-16 22:33:00,77.5,64.0,30.01,West,277,0.0,2.0,63,0.00,,,0.00,weatherlink.com 1.10,2013-08-17 03:33:00,
2013-08-16 22:48:00,77.3,62.0,30.01,WSW,258,0.0,7.0,60,0.00,,,0.00,weatherlink.com 1.10,2013-08-17 03:48:00,
2013-08-16 23:03:00,77.1,63.0,30.02,WNW,290,0.0,6.0,61,0.00,,,0.00,weatherlink.com 1.10,2013-08-17 04:03:00,
2013-08-16 23:18:00,76.8,63.0,30.02,WSW,240,0.0,6.0,62,0.00,,,0.00,weatherlink.com 1.10,2013-08-17 04:18:00,
2013-08-16 23:33:00,76.3,63.0,30.02,West,261,0.0,5.0,63,0.00,,,0.00,weatherlink.com 1.10,2013-08-17 04:33:00,
2013-08-16 23:48:00,75.7,63.0,30.03,WNW,299,0.0,5.0,64,0.00,,,0.00,weatherlink.com 1.10,2013-08-17 04:48:00,